sat.trackr.live / text

‹ back to catalog

HAWK-12C

NORAD 64621 · 2025-138A

PAYLOAD ACTIVE UNKNOWN

§ Identity

Operator
Country
US
Launch date
2025-06-26
Launch site
RLLB
Launch vehicle
Mass (kg)
RCS (m²)

External: N2YO · Heavens-Above · Gunter

§ Orbital elements

Epoch: 2026-09-21T10:43:59.057184Z

Period
94.81 min
Inclination
97.4401°
Eccentricity
0.0014309
Mean motion
15.18810318 rev/d
Perigee alt
499.6 km
Apogee alt
519.3 km
Semi-major
6,887.6 km
B*
1.1154e-4
RAAN
265.3229°
Arg perigee
160.5553°
Mean anomaly
199.6230°
Rev number
6,847

§ Raw data

HAWK-12C1 64621U 25138A   26264.44721131  .00002258  00000+0  11154-3 0  99922 64621  97.4401 265.3229 0014309 160.5553 199.6230 15.18810318 68478

JSON: /api/v1/satellites/64621 · /tle

For live sub-satellite position, see the globe view (requires WebGL).

§ Visibility from observer

Set your observer location to see the next 7 days of passes ≥ 10°. The values pass through the URL so the page stays shareable.

No JS? Fill the form by hand. The geolocation button needs JavaScript.